Overview Statistics Trail Chart Weather Telemetry Raw packets
 

This is the latest recevied weather packets stored in our database for station/object CW79215. If no packets are shown the sender has not sent any weather packets the latest 10 day(s).

<< 32 33 34 35 36 37 38 >>
Time Temp. Humidity Pressure Rain* Wind** Luminosity Snow
1787944825 19.44° C 53% 1025.4 hPa - - - -
1787943925 19.44° C 54% 1025.3 hPa - - - -
1787943025 19.44° C 54% 1025.4 hPa - - - -
1787942125 20.56° C 51% 1025.2 hPa - - - -
1787941225 20.56° C 49% 1025.1 hPa - - - -
1787940325 21.11° C 48% 1024.9 hPa - - - -
1787939425 21.67° C 48% 1024.7 hPa - - - -
1787938524 21.67° C 44% 1024.7 hPa - - - -
1787937624 22.22° C 43% 1024.6 hPa - - - -
1787936724 22.78° C 43% 1024.4 hPa - - - -
1787935824 22.78° C 43% 1024.2 hPa - - - -
1787934924 22.78° C 42% 1024.2 hPa - - - -
1787934023 22.78° C 40% 1024.1 hPa - - - -
1787933123 23.33° C 40% 1023.9 hPa - - - -
1787932223 23.89° C 38% 1023.8 hPa - - - -
1787931323 23.89° C 40% 1023.6 hPa - - - -
1787930422 24.44° C 38% 1023.5 hPa - - - -
1787929522 24.44° C 45% 1023.7 hPa - - - -
1787928622 24.44° C 49% 1023.8 hPa - - - -
1787927724 23.89° C 49% 1023.8 hPa - - - -
1787926824 23.89° C 48% 1023.9 hPa - - - -
1787925924 23.33° C 52% 1024.1 hPa - - - -
1787925024 23.89° C 50% 1024.2 hPa - - - -
1787924124 23.89° C 52% 1024.1 hPa - - - -
1787923224 23.33° C 55% 1023.9 hPa - - - -

* Rain since midnight (hover to see other rain measurements)
** Current wind speed in m/s (hover to see current wind gust speed)